Time,TemperatureF,DewpointF,PressureIn,WindDirection,WindDirectionDegrees,WindSpeedMPH,WindSpeedGustMPH,Humidity,HourlyPrecipIn,Conditions,Clouds,dailyrainin,SoftwareType,DateUTC
2013-07-18 00:07:00,70.5,68.0,29.96,NNW,343,0.0,1.0,92,0.00,,,0.00,weatherlink.com 1.10,2013-07-18 04:07:00,
2013-07-18 00:22:00,70.2,68.0,29.95,NNW,342,0.0,1.0,92,0.00,,,0.00,weatherlink.com 1.10,2013-07-18 04:22:00,
2013-07-18 00:37:00,69.7,67.0,29.95,NNW,343,0.0,0.0,92,0.00,,,0.00,weatherlink.com 1.10,2013-07-18 04:37:00,
2013-07-18 00:52:00,69.6,67.0,29.95,NNW,343,0.0,0.0,92,0.00,,,0.00,weatherlink.com 1.10,2013-07-18 04:52:00,
2013-07-18 01:07:00,69.2,67.0,29.95,NW,325,0.0,0.0,93,0.00,,,0.00,weatherlink.com 1.10,2013-07-18 05:07:00,
2013-07-18 01:22:00,68.8,67.0,29.95,NW,325,0.0,0.0,94,0.00,,,0.00,weatherlink.com 1.10,2013-07-18 05:22:00,
2013-07-18 01:37:00,68.6,67.0,29.94,NW,325,0.0,1.0,94,0.00,,,0.00,weatherlink.com 1.10,2013-07-18 05:37:00,
2013-07-18 01:52:00,68.4,67.0,29.94,WSW,249,0.0,1.0,94,0.00,,,0.00,weatherlink.com 1.10,2013-07-18 05:52:00,
2013-07-18 02:07:00,68.1,66.0,29.93,WSW,248,0.0,1.0,94,0.00,,,0.00,weatherlink.com 1.10,2013-07-18 06:07:00,
2013-07-18 02:22:00,67.9,67.0,29.93,WSW,248,0.0,0.0,95,0.00,,,0.00,weatherlink.com 1.10,2013-07-18 06:22:00,
2013-07-18 02:37:00,67.9,67.0,29.93,WSW,248,0.0,0.0,95,0.00,,,0.00,weatherlink.com 1.10,2013-07-18 06:37:00,
2013-07-18 02:52:00,67.9,67.0,29.93,WSW,248,0.0,0.0,95,0.00,,,0.00,weatherlink.com 1.10,2013-07-18 06:52:00,
2013-07-18 03:07:00,67.9,67.0,29.93,WSW,240,0.0,1.0,95,0.00,,,0.00,weatherlink.com 1.10,2013-07-18 07:07:00,
2013-07-18 03:22:00,67.6,66.0,29.93,WSW,246,0.0,1.0,95,0.00,,,0.00,weatherlink.com 1.10,2013-07-18 07:22:00,
2013-07-18 03:37:00,67.5,66.0,29.93,WSW,245,0.0,1.0,95,0.00,,,0.00,weatherlink.com 1.10,2013-07-18 07:37:00,
2013-07-18 03:52:00,67.5,66.0,29.93,WSW,245,0.0,0.0,95,0.00,,,0.00,weatherlink.com 1.10,2013-07-18 07:52:00,
2013-07-18 04:07:00,67.5,66.0,29.93,SW,229,0.0,0.0,95,0.00,,,0.00,weatherlink.com 1.10,2013-07-18 08:07:00,
2013-07-18 04:22:00,67.5,66.0,29.93,SW,229,0.0,1.0,95,0.00,,,0.00,weatherlink.com 1.10,2013-07-18 08:22:00,
2013-07-18 04:37:00,67.7,67.0,29.94,SW,229,0.0,1.0,96,0.00,,,0.00,weatherlink.com 1.10,2013-07-18 08:37:00,
2013-07-18 04:52:00,67.5,66.0,29.94,SW,229,0.0,1.0,94,0.00,,,0.00,weatherlink.com 1.10,2013-07-18 08:52:00,
2013-07-18 05:07:00,67.4,66.0,29.94,SW,229,0.0,0.0,95,0.00,,,0.00,weatherlink.com 1.10,2013-07-18 09:07:00,
2013-07-18 05:22:00,67.4,66.0,29.93,SW,229,0.0,1.0,96,0.02,,,0.02,weatherlink.com 1.10,2013-07-18 09:22:00,
2013-07-18 05:37:00,67.6,67.0,29.94,West,261,1.0,2.0,96,0.04,,,0.04,weatherlink.com 1.10,2013-07-18 09:37:00,
2013-07-18 05:52:00,68.5,68.0,29.94,WNW,300,0.0,3.0,97,0.07,,,0.07,weatherlink.com 1.10,2013-07-18 09:52:00,
2013-07-18 06:07:00,68.8,68.0,29.93,West,279,0.0,2.0,97,0.10,,,0.10,weatherlink.com 1.10,2013-07-18 10:07:00,
2013-07-18 06:22:00,68.7,68.0,29.93,WSW,249,0.0,1.0,97,0.12,,,0.14,weatherlink.com 1.10,2013-07-18 10:22:00,
2013-07-18 06:37:00,69.2,68.0,29.93,SSW,210,0.0,3.0,97,0.14,,,0.18,weatherlink.com 1.10,2013-07-18 10:37:00,
2013-07-18 06:52:00,68.9,68.0,29.92,SSW,197,0.0,1.0,97,0.11,,,0.18,weatherlink.com 1.10,2013-07-18 10:52:00,
2013-07-18 07:07:00,68.9,68.0,29.92,SW,215,0.0,1.0,97,0.08,,,0.18,weatherlink.com 1.10,2013-07-18 11:07:00,
2013-07-18 07:22:00,68.9,68.0,29.92,SW,215,0.0,2.0,97,0.04,,,0.18,weatherlink.com 1.10,2013-07-18 11:22:00,
2013-07-18 07:37:00,69.0,68.0,29.92,West,267,0.0,1.0,97,0.00,,,0.18,weatherlink.com 1.10,2013-07-18 11:37:00,
2013-07-18 07:52:00,69.4,69.0,29.92,SSW,212,0.0,1.0,97,0.00,,,0.18,weatherlink.com 1.10,2013-07-18 11:52:00,
2013-07-18 08:07:00,70.3,69.0,29.92,WSW,252,0.0,1.0,97,0.00,,,0.18,weatherlink.com 1.10,2013-07-18 12:07:00,
2013-07-18 08:22:00,70.7,70.0,29.92,WSW,250,0.0,1.0,96,0.00,,,0.18,weatherlink.com 1.10,2013-07-18 12:22:00,
2013-07-18 08:37:00,70.8,70.0,29.92,West,265,0.0,3.0,96,0.00,,,0.18,weatherlink.com 1.10,2013-07-18 12:37:00,
2013-07-18 08:52:00,70.9,70.0,29.92,West,270,0.0,1.0,95,0.00,,,0.18,weatherlink.com 1.10,2013-07-18 12:52:00,
2013-07-18 09:08:00,70.7,69.0,29.93,West,272,0.0,1.0,95,0.00,,,0.18,weatherlink.com 1.10,2013-07-18 13:08:00,
2013-07-18 09:22:00,70.9,70.0,29.93,West,280,1.0,4.0,96,0.00,,,0.18,weatherlink.com 1.10,2013-07-18 13:22:00,
2013-07-18 09:38:00,71.0,70.0,29.94,WSW,257,3.0,4.0,95,0.00,,,0.18,weatherlink.com 1.10,2013-07-18 13:38:00,
2013-07-18 09:53:00,71.0,70.0,29.94,West,270,1.0,3.0,95,0.00,,,0.18,weatherlink.com 1.10,2013-07-18 13:53:00,
2013-07-18 10:08:00,71.6,70.0,29.93,SSE,158,0.0,1.0,94,0.00,,,0.18,weatherlink.com 1.10,2013-07-18 14:08:00,
2013-07-18 10:23:00,72.5,70.0,29.91,ENE,69,0.0,1.0,92,0.00,,,0.18,weatherlink.com 1.10,2013-07-18 14:23:00,
2013-07-18 10:38:00,73.3,70.0,29.91,SSE,148,3.0,5.0,89,0.00,,,0.18,weatherlink.com 1.10,2013-07-18 14:38:00,
2013-07-18 10:53:00,74.5,70.0,29.91,SE,146,3.0,6.0,86,0.00,,,0.18,weatherlink.com 1.10,2013-07-18 14:53:00,
2013-07-18 11:08:00,74.6,71.0,29.89,ESE,122,5.0,9.0,87,0.00,,,0.18,weatherlink.com 1.10,2013-07-18 15:08:00,
2013-07-18 11:23:00,74.8,71.0,29.89,SE,134,5.0,9.0,87,0.00,,,0.18,weatherlink.com 1.10,2013-07-18 15:23:00,
2013-07-18 11:38:00,74.6,70.0,29.90,SE,128,3.0,9.0,86,0.00,,,0.18,weatherlink.com 1.10,2013-07-18 15:38:00,
2013-07-18 11:53:00,75.1,70.0,29.91,SSE,153,0.0,7.0,85,0.00,,,0.18,weatherlink.com 1.10,2013-07-18 15:53:00,
2013-07-18 12:08:00,73.8,70.0,29.91,SSE,158,0.0,4.0,88,0.02,,,0.20,weatherlink.com 1.10,2013-07-18 16:08:00,
2013-07-18 12:23:00,72.8,70.0,29.90,SSW,197,1.0,6.0,92,0.05,,,0.23,weatherlink.com 1.10,2013-07-18 16:23:00,
2013-07-18 12:38:00,72.9,71.0,29.89,SE,131,0.0,3.0,94,0.06,,,0.24,weatherlink.com 1.10,2013-07-18 16:38:00,
2013-07-18 12:53:00,73.0,71.0,29.87,SE,145,3.0,6.0,94,0.07,,,0.25,weatherlink.com 1.10,2013-07-18 16:53:00,
2013-07-18 13:08:00,73.4,72.0,29.87,SSE,150,0.0,5.0,94,0.05,,,0.26,weatherlink.com 1.10,2013-07-18 17:08:00,
2013-07-18 13:23:00,74.4,73.0,29.87,SW,231,1.0,4.0,94,0.03,,,0.26,weatherlink.com 1.10,2013-07-18 17:23:00,
2013-07-18 13:38:00,74.6,73.0,29.88,SSW,212,0.0,5.0,93,0.02,,,0.26,weatherlink.com 1.10,2013-07-18 17:38:00,
2013-07-18 13:53:00,74.3,72.0,29.87,SE,145,3.0,4.0,93,0.02,,,0.27,weatherlink.com 1.10,2013-07-18 17:53:00,
2013-07-18 14:08:00,74.0,72.0,29.84,SSE,153,1.0,7.0,93,0.02,,,0.28,weatherlink.com 1.10,2013-07-18 18:08:00,
2013-07-18 14:23:00,74.5,72.0,29.82,SE,135,4.0,6.0,93,0.02,,,0.28,weatherlink.com 1.10,2013-07-18 18:23:00,
2013-07-18 14:38:00,75.0,73.0,29.82,SE,141,1.0,6.0,94,0.02,,,0.28,weatherlink.com 1.10,2013-07-18 18:38:00,
2013-07-18 14:53:00,75.8,73.0,29.81,SE,131,5.0,8.0,91,0.01,,,0.28,weatherlink.com 1.10,2013-07-18 18:53:00,
2013-07-18 15:08:00,76.4,73.0,29.80,SE,129,8.0,10.0,90,0.00,,,0.28,weatherlink.com 1.10,2013-07-18 19:08:00,
2013-07-18 15:23:00,78.3,74.0,29.80,SSE,148,1.0,9.0,86,0.00,,,0.28,weatherlink.com 1.10,2013-07-18 19:23:00,
2013-07-18 15:38:00,80.1,74.0,29.78,WSW,239,2.0,9.0,82,0.00,,,0.28,weatherlink.com 1.10,2013-07-18 19:38:00,
2013-07-18 15:53:00,80.2,73.0,29.78,SSW,210,3.0,12.0,79,0.00,,,0.28,weatherlink.com 1.10,2013-07-18 19:53:00,
2013-07-18 16:09:00,80.3,74.0,29.77,ESE,119,8.0,12.0,81,0.00,,,0.28,weatherlink.com 1.10,2013-07-18 20:09:00,
2013-07-18 16:24:00,81.2,74.0,29.76,SE,137,10.0,10.0,79,0.00,,,0.28,weatherlink.com 1.10,2013-07-18 20:24:00,
2013-07-18 16:39:00,81.3,71.0,29.75,SE,144,7.0,11.0,72,0.00,,,0.28,weatherlink.com 1.10,2013-07-18 20:39:00,
2013-07-18 16:54:00,81.6,71.0,29.74,South,190,4.0,10.0,71,0.00,,,0.28,weatherlink.com 1.10,2013-07-18 20:54:00,
2013-07-18 17:09:00,82.1,72.0,29.74,South,186,1.0,11.0,71,0.00,,,0.28,weatherlink.com 1.10,2013-07-18 21:09:00,
2013-07-18 17:24:00,82.2,72.0,29.73,South,173,6.0,11.0,70,0.00,,,0.28,weatherlink.com 1.10,2013-07-18 21:24:00,
2013-07-18 17:39:00,82.6,72.0,29.73,SE,131,9.0,10.0,71,0.00,,,0.28,weatherlink.com 1.10,2013-07-18 21:39:00,
2013-07-18 17:54:00,82.0,73.0,29.73,SSE,159,4.0,9.0,73,0.00,,,0.28,weatherlink.com 1.10,2013-07-18 21:54:00,
2013-07-18 18:11:00,82.9,73.0,29.71,SW,218,5.0,13.0,72,0.00,,,0.28,weatherlink.com 1.10,2013-07-18 22:11:00,
2013-07-18 18:24:00,83.0,74.0,29.70,SSE,148,12.0,12.0,73,0.00,,,0.28,weatherlink.com 1.10,2013-07-18 22:24:00,
2013-07-18 18:39:00,81.1,74.0,29.68,WSW,250,2.0,7.0,78,0.00,,,0.28,weatherlink.com 1.10,2013-07-18 22:39:00,
2013-07-18 18:54:00,80.0,73.0,29.68,SE,131,4.0,9.0,80,0.00,,,0.28,weatherlink.com 1.10,2013-07-18 22:54:00,
2013-07-18 19:24:00,78.6,73.0,29.64,SSE,148,4.0,11.0,84,0.00,,,0.28,weatherlink.com 1.10,2013-07-18 23:24:00,
2013-07-18 19:39:00,78.0,74.0,29.64,SW,224,0.0,7.0,87,0.01,,,0.29,weatherlink.com 1.10,2013-07-18 23:39:00,
2013-07-18 19:54:00,77.2,74.0,29.64,SSW,210,0.0,7.0,89,0.02,,,0.30,weatherlink.com 1.10,2013-07-18 23:54:00,
2013-07-18 20:09:00,76.4,74.0,29.64,SE,124,2.0,4.0,91,0.02,,,0.30,weatherlink.com 1.10,2013-07-19 00:09:00,
2013-07-18 20:24:00,75.8,74.0,29.63,SSW,211,1.0,5.0,93,0.02,,,0.30,weatherlink.com 1.10,2013-07-19 00:24:00,
2013-07-18 20:39:00,75.7,74.0,29.64,SE,136,2.0,5.0,93,0.01,,,0.30,weatherlink.com 1.10,2013-07-19 00:39:00,
2013-07-18 20:54:00,76.5,74.0,29.67,WNW,288,3.0,11.0,90,0.00,,,0.30,weatherlink.com 1.10,2013-07-19 00:54:00,
2013-07-18 21:09:00,72.2,69.0,29.68,WNW,288,0.0,15.0,89,0.28,,,0.58,weatherlink.com 1.10,2013-07-19 01:09:00,
2013-07-18 21:24:00,69.8,68.0,29.68,West,273,2.0,10.0,93,0.40,,,0.70,weatherlink.com 1.10,2013-07-19 01:24:00,
2013-07-18 21:39:00,69.3,68.0,29.65,SW,229,0.0,11.0,94,0.49,,,0.79,weatherlink.com 1.10,2013-07-19 01:39:00,
2013-07-18 21:54:00,69.3,68.0,29.64,SSW,212,0.0,5.0,94,0.50,,,0.81,weatherlink.com 1.10,2013-07-19 01:54:00,
2013-07-18 22:09:00,69.6,68.0,29.64,SSE,161,2.0,6.0,94,0.23,,,0.81,weatherlink.com 1.10,2013-07-19 02:09:00,
2013-07-18 22:24:00,69.6,68.0,29.63,SSE,163,1.0,5.0,94,0.12,,,0.82,weatherlink.com 1.10,2013-07-19 02:24:00,
2013-07-18 22:39:00,69.7,68.0,29.61,SSW,201,0.0,6.0,94,0.03,,,0.82,weatherlink.com 1.10,2013-07-19 02:39:00,
2013-07-18 22:54:00,69.8,68.0,29.62,SE,137,1.0,5.0,95,0.01,,,0.82,weatherlink.com 1.10,2013-07-19 02:54:00,
2013-07-18 23:09:00,70.0,69.0,29.60,SE,141,5.0,7.0,95,0.02,,,0.83,weatherlink.com 1.10,2013-07-19 03:09:00,
2013-07-18 23:25:00,70.7,69.0,29.59,West,276,3.0,11.0,95,0.03,,,0.85,weatherlink.com 1.10,2013-07-19 03:25:00,
2013-07-18 23:39:00,72.2,70.0,29.59,SW,231,3.0,8.0,92,0.03,,,0.85,weatherlink.com 1.10,2013-07-19 03:39:00,
2013-07-18 23:54:00,72.0,70.0,29.58,SSW,192,2.0,7.0,92,0.03,,,0.85,weatherlink.com 1.10,2013-07-19 03:54:00,